Weather History for PAPG - December, 2013

Change the Weather History Date:

Friday, December 6, 2013

  Actual Average Record
Temperature  
Mean Temperature 18 °F -  
Max Temperature 21 °F 35 °F 50 °F (2006)
Min Temperature 14 °F 29 °F 12 °F (2007)
Degree Days  
Heating Degree Days 48    
Moisture  
Dew Point 14 °F    
Average Humidity 85    
Maximum Humidity 93    
Minimum Humidity 73    
Precipitation  
Precipitation 0.00 in - - ()
Sea Level Pressure  
Sea Level Pressure 30.58 in    
Wind  
Wind Speed 3 mph (SW)    
Max Wind Speed 5 mph    
Max Gust Speed -    
Visibility 10 miles    
Events Fog    
Averages and records for this station are not official NWS values.
T = Trace of Precipitation, MM = Missing Value Source: NWS Daily Summary

Daily Weather History Graph

Daily Weather History Graph

Search for Another Location

Airport or City:

Trip Planner

Search our weather history database for the weather conditions in past years. The results will help you decide how hot, cold, wet, or windy it might be!

Date:

Astronomy

Dec. 06, 2013 Rise Set
Actual Time 8:12 AM AKST 3:13 PM AKST
Civil Twilight 7:24 AM AKST 4:01 PM AKST
Nautical Twilight 6:34 AM AKST 4:51 PM AKST
Astronomical Twilight 5:48 AM AKST 5:37 PM AKST
Moon 10:50 AM AKST (12/6) 8:30 PM AKST (12/6)
Length of Visible Light 8h 36m
Length of Day
7h 01m
Waxing Crescent, 20% of the Moon is Illuminated
Dec 6
Waxing Crescent
Dec 9
First Quarter
Dec 17
Full
Dec 25
Last Quarter
Jan 1
New

Hourly Weather History & Observations

Time (AKST) Temp. Windchill Dew Point Humidity Pressure Visibility Wind Dir Wind Speed Gust Speed Precip Events Conditions
12:16 AM 17.6 °F 10.7 °F 15.8 °F 93% 30.59 in 10.0 mi WSW 4.6 mph - N/A   Clear
12:36 AM 17.6 °F 12.3 °F 12.2 °F 79% 30.59 in 10.0 mi WSW 3.5 mph - N/A   Clear
12:56 AM 17.6 °F 10.7 °F 15.8 °F 93% 30.60 in 10.0 mi WSW 4.6 mph - N/A   Clear
1:16 AM 19.4 °F 14.3 °F 17.6 °F 93% 30.60 in 10.0 mi SW 3.5 mph - N/A   Clear
1:56 AM 17.6 °F 12.3 °F 15.8 °F 93% 30.61 in 10.0 mi West 3.5 mph - N/A   Clear
2:16 AM 17.6 °F 10.7 °F 15.8 °F 93% 30.62 in 10.0 mi West 4.6 mph - N/A   Clear
2:36 AM 17.6 °F 10.7 °F 14.0 °F 86% 30.62 in 10.0 mi SW 4.6 mph - N/A   Clear
2:56 AM 19.4 °F 12.8 °F 15.8 °F 86% 30.62 in 10.0 mi WSW 4.6 mph - N/A   Clear
3:36 AM 17.6 °F 12.3 °F 12.2 °F 79% 30.62 in 10.0 mi WSW 3.5 mph - N/A   Clear
4:56 AM 17.6 °F - 14.0 °F 86% 30.62 in 10.0 mi Calm Calm - N/A   Clear
5:55 AM 19.4 °F - 15.8 °F 86% 30.61 in 10.0 mi Calm Calm - N/A   Clear
6:16 AM 17.6 °F 10.7 °F 15.8 °F 93% 30.62 in 10.0 mi West 4.6 mph - N/A   Clear
6:56 AM 15.8 °F - 12.2 °F 86% 30.62 in 10.0 mi Calm Calm - N/A   Clear
7:36 AM 14.0 °F 8.2 °F 10.4 °F 86% 30.61 in 10.0 mi WSW 3.5 mph - N/A   Clear
7:55 AM 15.8 °F 10.2 °F 12.2 °F 86% 30.61 in 10.0 mi SW 3.5 mph - N/A   Partly Cloudy
8:16 AM 17.6 °F - 15.8 °F 93% 30.61 in 10.0 mi Calm Calm - N/A   Partly Cloudy
8:36 AM 15.8 °F 10.2 °F 12.2 °F 86% 30.62 in 10.0 mi WSW 3.5 mph - N/A   Partly Cloudy
8:55 AM 17.6 °F 12.3 °F 14.0 °F 86% 30.62 in 10.0 mi SW 3.5 mph - N/A Fog Patches of Fog
9:16 AM 15.8 °F 10.2 °F 14.0 °F 93% 30.62 in 10.0 mi WSW 3.5 mph - N/A   Scattered Clouds
9:36 AM 17.6 °F - 15.8 °F 93% 30.62 in 10.0 mi Calm Calm - N/A   Scattered Clouds
9:55 AM 19.4 °F - 17.6 °F 93% 30.26 in 10.0 mi Calm Calm - N/A   Clear
10:16 AM 19.4 °F - 15.8 °F 86% 30.62 in 10.0 mi Calm Calm - N/A   Clear
10:36 AM 17.6 °F - 15.8 °F 93% 30.62 in 10.0 mi Calm Calm - N/A   Clear
10:55 AM 19.4 °F 14.3 °F 15.8 °F 86% 30.62 in 10.0 mi SW 3.5 mph - N/A   Clear
11:16 AM 19.4 °F 14.3 °F 15.8 °F 86% 30.61 in 10.0 mi SW 3.5 mph - N/A   Clear
11:56 AM 19.4 °F 14.3 °F 17.6 °F 93% 30.61 in 10.0 mi SSW 3.5 mph - N/A   Clear
12:36 PM 21.2 °F - 15.8 °F 80% 30.60 in 10.0 mi Calm Calm - N/A   Clear
12:55 PM 21.2 °F - 15.8 °F 80% 30.59 in 10.0 mi Calm Calm - N/A   Clear
1:16 PM 21.2 °F - 15.8 °F 80% 30.59 in 10.0 mi Calm Calm - N/A   Clear
1:36 PM 21.2 °F 16.4 °F 15.8 °F 80% 30.59 in 10.0 mi South 3.5 mph - N/A   Clear
1:56 PM 21.2 °F 16.4 °F 15.8 °F 80% 30.59 in 10.0 mi SSW 3.5 mph - N/A   Clear
2:16 PM 21.2 °F 16.4 °F 15.8 °F 80% 30.59 in 10.0 mi SW 3.5 mph - N/A   Clear
2:36 PM 19.4 °F - 12.2 °F 74% 30.59 in 10.0 mi Calm Calm - N/A   Clear
2:56 PM 19.4 °F 14.3 °F 15.8 °F 86% 30.58 in 10.0 mi SSW 3.5 mph - N/A   Clear
3:16 PM 19.4 °F 14.3 °F 12.2 °F 74% 30.58 in 10.0 mi SW 3.5 mph - N/A   Clear
3:56 PM 19.4 °F - 15.8 °F 86% 30.58 in 10.0 mi Calm Calm - N/A   Clear
4:16 PM 17.6 °F - 10.4 °F 73% 30.58 in 10.0 mi Calm Calm - N/A   Clear
4:36 PM 19.4 °F - 15.8 °F 86% 30.57 in 10.0 mi Calm Calm - N/A   Clear
4:56 PM 17.6 °F - 14.0 °F 86% 30.57 in 10.0 mi Calm Calm - N/A   Clear
5:16 PM 19.4 °F - 15.8 °F 86% 30.56 in 10.0 mi Calm Calm - N/A   Clear
5:56 PM 17.6 °F 12.3 °F 12.2 °F 79% 30.56 in 10.0 mi WSW 3.5 mph - N/A   Clear
6:16 PM 17.6 °F - 12.2 °F 79% 30.55 in 10.0 mi Calm Calm - N/A   Clear
6:36 PM 15.8 °F - 10.4 °F 79% 30.55 in 10.0 mi Calm Calm - N/A   Clear
7:36 PM 15.8 °F 10.2 °F 12.2 °F 86% 30.54 in 10.0 mi SW 3.5 mph - N/A   Clear
7:56 PM 15.8 °F - 10.4 °F 79% 30.54 in 10.0 mi Calm Calm - N/A   Clear
8:16 PM 15.8 °F - 10.4 °F 79% 30.53 in 10.0 mi Calm Calm - N/A   Clear
8:36 PM 17.6 °F - 12.2 °F 79% 30.53 in 10.0 mi Calm Calm - N/A   Clear
8:56 PM 15.8 °F 10.2 °F 10.4 °F 79% 30.53 in - WSW 3.5 mph - N/A   Clear
9:36 PM 14.0 °F - 10.4 °F 86% 30.52 in 10.0 mi Calm Calm - N/A   Clear
9:56 PM 15.8 °F - 12.2 °F 86% 30.52 in 10.0 mi Calm Calm - N/A   Clear
10:56 PM 15.8 °F 10.2 °F 10.4 °F 79% 30.50 in 10.0 mi West 3.5 mph - N/A   Clear
11:16 PM 15.8 °F - 10.4 °F 79% 30.50 in 10.0 mi Calm Calm - N/A   Clear
11:56 PM 15.8 °F - 10.4 °F 79% 30.48 in 10.0 mi Calm Calm - N/A   Clear